Year,Month,Day,Hour,Minute,Value (Times are PST for temperature in C)
2006,07,21,00,00,19.10
2006,07,21,00,01,19.10
2006,07,21,00,02,19.10
2006,07,21,00,03,19.10
2006,07,21,00,04,19.10
2006,07,21,00,05,19.00
2006,07,21,00,06,19.00
2006,07,21,00,07,18.90
2006,07,21,00,08,18.90
2006,07,21,00,09,18.80
2006,07,21,00,10,18.80
2006,07,21,00,11,18.80
2006,07,21,00,12,18.70
2006,07,21,00,13,18.70
2006,07,21,00,14,18.70
2006,07,21,00,15,18.70
2006,07,21,00,16,18.70
2006,07,21,00,17,18.70
2006,07,21,00,18,18.70
2006,07,21,00,19,18.60
2006,07,21,00,20,18.60
2006,07,21,00,21,18.60
2006,07,21,00,22,18.60
2006,07,21,00,23,18.60
2006,07,21,00,24,18.60
2006,07,21,00,25,18.60
2006,07,21,00,26,18.60
2006,07,21,00,27,18.70
2006,07,21,00,28,18.70
2006,07,21,00,29,18.70
2006,07,21,00,30,18.70
2006,07,21,00,31,18.70
2006,07,21,00,32,18.70
2006,07,21,00,33,18.70
2006,07,21,00,34,18.70
2006,07,21,00,35,18.70
2006,07,21,00,36,18.70
2006,07,21,00,37,18.70
2006,07,21,00,38,18.70
2006,07,21,00,39,18.70
2006,07,21,00,40,18.70
2006,07,21,00,41,18.70
2006,07,21,00,42,18.70
2006,07,21,00,43,18.70
2006,07,21,00,44,18.70
2006,07,21,00,45,18.60
2006,07,21,00,46,18.60
2006,07,21,00,47,18.60
2006,07,21,00,48,18.60
2006,07,21,00,49,18.60
2006,07,21,00,50,18.60
2006,07,21,00,51,18.60
2006,07,21,00,52,18.50
2006,07,21,00,53,18.50
2006,07,21,00,54,18.50
2006,07,21,00,55,18.50
2006,07,21,00,56,18.50
2006,07,21,00,57,18.40
2006,07,21,00,58,18.40
2006,07,21,00,59,18.40
2006,07,21,01,00,18.40
2006,07,21,01,01,18.40
2006,07,21,01,02,18.40
2006,07,21,01,03,18.40
2006,07,21,01,04,18.30
2006,07,21,01,05,18.30
2006,07,21,01,06,18.30
2006,07,21,01,07,18.30
2006,07,21,01,08,18.30
2006,07,21,01,09,18.30
2006,07,21,01,10,18.20
2006,07,21,01,11,18.20
2006,07,21,01,12,18.20
2006,07,21,01,13,18.20
2006,07,21,01,14,18.20
2006,07,21,01,15,18.20
2006,07,21,01,16,18.20
2006,07,21,01,17,18.20
2006,07,21,01,18,18.20
2006,07,21,01,19,18.20
2006,07,21,01,20,18.20
2006,07,21,01,21,18.20
2006,07,21,01,22,18.20
2006,07,21,01,23,18.10
2006,07,21,01,24,18.10
2006,07,21,01,25,18.10
2006,07,21,01,26,18.00
2006,07,21,01,27,18.00
2006,07,21,01,28,18.00
2006,07,21,01,29,17.90
2006,07,21,01,30,17.90
2006,07,21,01,31,17.90
2006,07,21,01,32,17.80
2006,07,21,01,33,17.80
2006,07,21,01,34,17.80
2006,07,21,01,35,17.80
2006,07,21,01,36,17.80
2006,07,21,01,37,17.70
2006,07,21,01,38,17.70
2006,07,21,01,39,17.70
2006,07,21,01,40,17.70
2006,07,21,01,41,17.70
2006,07,21,01,42,17.70
2006,07,21,01,43,17.70
2006,07,21,01,44,17.70
2006,07,21,01,45,17.60
2006,07,21,01,46,17.60
2006,07,21,01,47,17.60
2006,07,21,01,48,17.60
2006,07,21,01,49,17.50
2006,07,21,01,50,17.50
2006,07,21,01,51,17.40
2006,07,21,01,52,17.40
2006,07,21,01,53,17.30
2006,07,21,01,54,17.30
2006,07,21,01,55,17.30
2006,07,21,01,56,17.30
2006,07,21,01,57,17.20
2006,07,21,01,58,17.20
2006,07,21,01,59,17.20
2006,07,21,02,00,17.10
2006,07,21,02,01,17.10
2006,07,21,02,02,17.10
2006,07,21,02,03,17.10
2006,07,21,02,04,17.10
2006,07,21,02,05,17.10
2006,07,21,02,06,17.10
2006,07,21,02,07,17.10
2006,07,21,02,08,17.10
2006,07,21,02,09,17.00
2006,07,21,02,10,17.00
2006,07,21,02,11,17.00
2006,07,21,02,12,17.00
2006,07,21,02,13,17.00
2006,07,21,02,14,17.00
2006,07,21,02,15,17.00
2006,07,21,02,16,17.00
2006,07,21,02,17,17.00
2006,07,21,02,18,16.90
2006,07,21,02,19,16.90
2006,07,21,02,20,16.90
2006,07,21,02,21,16.90
2006,07,21,02,22,16.90
2006,07,21,02,23,16.90
2006,07,21,02,24,16.90
2006,07,21,02,25,16.90
2006,07,21,02,26,16.90
2006,07,21,02,27,16.90
2006,07,21,02,28,16.90
2006,07,21,02,29,16.90
2006,07,21,02,30,16.90
2006,07,21,02,31,16.90
2006,07,21,02,32,16.90
2006,07,21,02,33,16.90
2006,07,21,02,34,16.90
2006,07,21,02,35,16.90
2006,07,21,02,36,16.90
2006,07,21,02,37,16.90
2006,07,21,02,38,16.90
2006,07,21,02,39,16.90
2006,07,21,02,40,16.90
2006,07,21,02,41,16.90
2006,07,21,02,42,16.90
2006,07,21,02,43,16.90
2006,07,21,02,44,16.90
2006,07,21,02,45,16.80
2006,07,21,02,46,16.80
2006,07,21,02,47,16.90
2006,07,21,02,48,16.90
2006,07,21,02,49,16.90
2006,07,21,02,50,16.90
2006,07,21,02,51,16.90
2006,07,21,02,52,17.00
2006,07,21,02,53,17.00
2006,07,21,02,54,17.00
2006,07,21,02,55,17.00
2006,07,21,02,56,17.10
2006,07,21,02,57,17.10
2006,07,21,02,58,17.10
2006,07,21,02,59,17.10
2006,07,21,03,00,17.20
2006,07,21,03,01,17.20
2006,07,21,03,02,17.20
2006,07,21,03,03,17.20
2006,07,21,03,04,17.20
2006,07,21,03,05,17.20
2006,07,21,03,06,17.20
2006,07,21,03,07,17.20
2006,07,21,03,08,17.20
2006,07,21,03,09,17.20
2006,07,21,03,10,17.20
2006,07,21,03,11,17.20
2006,07,21,03,12,17.10
2006,07,21,03,13,17.10
2006,07,21,03,14,17.10
2006,07,21,03,15,17.00
2006,07,21,03,16,17.00
2006,07,21,03,17,17.00
2006,07,21,03,18,16.90
2006,07,21,03,19,16.90
2006,07,21,03,20,16.80
2006,07,21,03,21,16.80
2006,07,21,03,22,16.80
2006,07,21,03,23,16.80
2006,07,21,03,24,16.70
2006,07,21,03,25,16.70
2006,07,21,03,26,16.70
2006,07,21,03,27,16.70
2006,07,21,03,28,16.60
2006,07,21,03,29,16.70
2006,07,21,03,30,16.70
2006,07,21,03,31,16.70
2006,07,21,03,32,16.80
2006,07,21,03,33,16.80
2006,07,21,03,34,16.90
2006,07,21,03,35,16.90
2006,07,21,03,36,17.00
2006,07,21,03,37,17.10
2006,07,21,03,38,17.10
2006,07,21,03,39,17.20
2006,07,21,03,40,17.30
2006,07,21,03,41,17.30
2006,07,21,03,42,17.30
2006,07,21,03,43,17.30
2006,07,21,03,44,17.40
2006,07,21,03,45,17.40
2006,07,21,03,46,17.40
2006,07,21,03,47,17.40
2006,07,21,03,48,17.40
2006,07,21,03,49,17.40
2006,07,21,03,50,17.40
2006,07,21,03,51,17.40
2006,07,21,03,52,17.40
2006,07,21,03,53,17.40
2006,07,21,03,54,17.40
2006,07,21,03,55,17.40
2006,07,21,03,56,17.40
2006,07,21,03,57,17.40
2006,07,21,03,58,17.40
2006,07,21,03,59,17.30
2006,07,21,04,00,17.30
2006,07,21,04,01,17.30
2006,07,21,04,02,17.30
2006,07,21,04,03,17.30
2006,07,21,04,04,17.30
2006,07,21,04,05,17.30
2006,07,21,04,06,17.30
2006,07,21,04,07,17.20
2006,07,21,04,08,17.20
2006,07,21,04,09,17.20
2006,07,21,04,10,17.20
2006,07,21,04,11,17.20
2006,07,21,04,12,17.10
2006,07,21,04,13,17.10
2006,07,21,04,14,17.10
2006,07,21,04,15,17.10
2006,07,21,04,16,17.10
2006,07,21,04,17,17.00
2006,07,21,04,18,17.00
2006,07,21,04,19,17.00
2006,07,21,04,20,16.90
2006,07,21,04,21,16.90
2006,07,21,04,22,16.90
2006,07,21,04,23,16.90
2006,07,21,04,24,16.90
2006,07,21,04,25,16.80
2006,07,21,04,26,16.80
2006,07,21,04,27,16.80
2006,07,21,04,28,16.80
2006,07,21,04,29,16.80
2006,07,21,04,30,16.70
2006,07,21,04,31,16.70
2006,07,21,04,32,16.70
2006,07,21,04,33,16.70
2006,07,21,04,34,16.70
2006,07,21,04,35,16.70
2006,07,21,04,36,16.60
2006,07,21,04,37,16.60
2006,07,21,04,38,16.60
2006,07,21,04,39,16.60
2006,07,21,04,40,16.50
2006,07,21,04,41,16.50
2006,07,21,04,42,16.50
2006,07,21,04,43,16.50
2006,07,21,04,44,16.50
2006,07,21,04,45,16.50
2006,07,21,04,46,16.50
2006,07,21,04,47,16.50
2006,07,21,04,48,16.50
2006,07,21,04,49,16.50
2006,07,21,04,50,16.50
2006,07,21,04,51,16.50
2006,07,21,04,52,16.60
2006,07,21,04,53,16.60
2006,07,21,04,54,16.60
2006,07,21,04,55,16.60
2006,07,21,04,56,16.60
2006,07,21,04,57,16.60
2006,07,21,04,58,16.60
2006,07,21,04,59,16.60
2006,07,21,05,00,16.60
2006,07,21,05,01,16.60
2006,07,21,05,02,16.50
2006,07,21,05,03,16.40
2006,07,21,05,04,16.40
2006,07,21,05,05,16.40
2006,07,21,05,06,16.40
2006,07,21,05,07,16.40
2006,07,21,05,08,16.40
2006,07,21,05,09,16.40
2006,07,21,05,10,16.50
2006,07,21,05,11,16.60
2006,07,21,05,12,16.70
2006,07,21,05,13,16.90
2006,07,21,05,14,17.00
2006,07,21,05,15,17.10
2006,07,21,05,16,17.20
2006,07,21,05,17,17.20
2006,07,21,05,18,17.30
2006,07,21,05,19,17.30
2006,07,21,05,20,17.40
2006,07,21,05,21,17.50
2006,07,21,05,22,17.60
2006,07,21,05,23,17.70
2006,07,21,05,24,17.80
2006,07,21,05,25,17.80
2006,07,21,05,26,17.80
2006,07,21,05,27,17.90
2006,07,21,05,28,17.90
2006,07,21,05,29,17.90
2006,07,21,05,30,17.90
2006,07,21,05,31,17.90
2006,07,21,05,32,17.90
2006,07,21,05,33,18.00
2006,07,21,05,34,18.00
2006,07,21,05,35,18.00
2006,07,21,05,36,18.00
2006,07,21,05,37,18.00
2006,07,21,05,38,18.00
2006,07,21,05,39,18.00
2006,07,21,05,40,18.00
2006,07,21,05,41,18.00
2006,07,21,05,42,17.90
2006,07,21,05,43,17.90
2006,07,21,05,44,17.90
2006,07,21,05,45,17.90
2006,07,21,05,46,17.90
2006,07,21,05,47,17.90
2006,07,21,05,48,17.80
2006,07,21,05,49,17.70
2006,07,21,05,50,17.60
2006,07,21,05,51,17.60
2006,07,21,05,52,17.50
2006,07,21,05,53,17.50
2006,07,21,05,54,17.40
2006,07,21,05,55,17.40
2006,07,21,05,56,17.40
2006,07,21,05,57,17.40
2006,07,21,05,58,17.40
2006,07,21,05,59,17.40
2006,07,21,06,00,17.40
2006,07,21,06,01,17.50
2006,07,21,06,02,17.50
2006,07,21,06,03,17.50
2006,07,21,06,04,17.60
2006,07,21,06,05,17.60
2006,07,21,06,06,17.70
2006,07,21,06,07,17.80
2006,07,21,06,08,17.80
2006,07,21,06,09,17.90
2006,07,21,06,10,17.90
2006,07,21,06,11,18.00
2006,07,21,06,12,18.10
2006,07,21,06,13,18.20
2006,07,21,06,14,18.20
2006,07,21,06,15,18.30
2006,07,21,06,16,18.40
2006,07,21,06,17,18.50
2006,07,21,06,18,18.50
2006,07,21,06,19,18.60
2006,07,21,06,20,18.60
2006,07,21,06,21,18.60
2006,07,21,06,22,18.50
2006,07,21,06,23,18.40
2006,07,21,06,24,18.40
2006,07,21,06,25,18.40
2006,07,21,06,26,18.50
2006,07,21,06,27,18.50
2006,07,21,06,28,18.60
2006,07,21,06,29,18.70
2006,07,21,06,30,18.80
2006,07,21,06,31,18.90
2006,07,21,06,32,19.00
2006,07,21,06,33,19.20
2006,07,21,06,34,19.30
2006,07,21,06,35,19.40
2006,07,21,06,36,19.50
2006,07,21,06,37,19.60
2006,07,21,06,38,19.70
2006,07,21,06,39,19.80
2006,07,21,06,40,19.80
2006,07,21,06,41,19.90
2006,07,21,06,42,19.90
2006,07,21,06,43,19.90
2006,07,21,06,44,19.90
2006,07,21,06,45,20.00
2006,07,21,06,46,20.00
2006,07,21,06,47,20.00
2006,07,21,06,48,20.00
2006,07,21,06,49,20.00
2006,07,21,06,50,20.00
2006,07,21,06,51,19.90
2006,07,21,06,52,19.90
2006,07,21,06,53,19.80
2006,07,21,06,54,19.80
2006,07,21,06,55,19.70
2006,07,21,06,56,19.70
2006,07,21,06,57,19.60
2006,07,21,06,58,19.60
2006,07,21,06,59,19.60
2006,07,21,07,00,19.50
2006,07,21,07,01,19.50
2006,07,21,07,02,19.40
2006,07,21,07,03,19.20
2006,07,21,07,04,19.10
2006,07,21,07,05,19.00
2006,07,21,07,06,19.00
2006,07,21,07,07,18.90
2006,07,21,07,08,18.90
2006,07,21,07,09,18.80
2006,07,21,07,10,18.80
2006,07,21,07,11,18.80
2006,07,21,07,12,18.80
2006,07,21,07,13,18.80
2006,07,21,07,14,18.80
2006,07,21,07,15,18.80
2006,07,21,07,16,18.90
2006,07,21,07,17,19.00
2006,07,21,07,18,19.00
2006,07,21,07,19,19.10
2006,07,21,07,20,19.10
2006,07,21,07,21,19.10
2006,07,21,07,22,19.10
2006,07,21,07,23,19.10
2006,07,21,07,24,19.10
2006,07,21,07,25,19.20
2006,07,21,07,26,19.20
2006,07,21,07,27,19.20
2006,07,21,07,28,19.20
2006,07,21,07,29,19.20
2006,07,21,07,30,19.20
2006,07,21,07,31,19.30
2006,07,21,07,32,19.30
2006,07,21,07,33,19.40
2006,07,21,07,34,19.50
2006,07,21,07,35,19.70
2006,07,21,07,36,19.80
2006,07,21,07,37,19.90
2006,07,21,07,38,20.00
2006,07,21,07,39,20.10
2006,07,21,07,40,20.10
2006,07,21,07,41,20.20
2006,07,21,07,42,20.30
2006,07,21,07,43,20.40
2006,07,21,07,44,20.40
2006,07,21,07,45,20.40
2006,07,21,07,46,20.50
2006,07,21,07,47,20.60
2006,07,21,07,48,20.60
2006,07,21,07,49,20.60
2006,07,21,07,50,20.70
2006,07,21,07,51,20.70
2006,07,21,07,52,20.80
2006,07,21,07,53,20.80
2006,07,21,07,54,20.90
2006,07,21,07,55,21.00
2006,07,21,07,56,21.00
2006,07,21,07,57,21.10
2006,07,21,07,58,21.20
2006,07,21,07,59,21.30
2006,07,21,08,00,21.40
2006,07,21,08,01,21.50
2006,07,21,08,02,21.60
2006,07,21,08,03,21.70
2006,07,21,08,04,21.80
2006,07,21,08,05,21.80
2006,07,21,08,06,21.90
2006,07,21,08,07,21.90
2006,07,21,08,08,22.00
2006,07,21,08,09,22.10
2006,07,21,08,10,22.10
2006,07,21,08,11,22.10
2006,07,21,08,12,22.20
2006,07,21,08,13,22.20
2006,07,21,08,14,22.20
2006,07,21,08,15,22.20
2006,07,21,08,16,22.20
2006,07,21,08,17,22.30
2006,07,21,08,18,22.30
2006,07,21,08,19,22.30
2006,07,21,08,20,22.40
2006,07,21,08,21,22.50
2006,07,21,08,22,22.50
2006,07,21,08,23,22.70
2006,07,21,08,24,22.80
2006,07,21,08,25,22.80
2006,07,21,08,26,22.90
2006,07,21,08,27,23.00
2006,07,21,08,28,23.00
2006,07,21,08,29,23.00
2006,07,21,08,30,23.00
2006,07,21,08,31,23.00
2006,07,21,08,32,23.00
2006,07,21,08,33,23.10
2006,07,21,08,34,23.10
2006,07,21,08,35,23.20
2006,07,21,08,36,23.20
2006,07,21,08,37,23.30
2006,07,21,08,38,23.30
2006,07,21,08,39,23.40
2006,07,21,08,40,23.50
2006,07,21,08,41,23.60
2006,07,21,08,42,23.60
2006,07,21,08,43,23.60
2006,07,21,08,44,23.60
2006,07,21,08,45,23.70
2006,07,21,08,46,23.70
2006,07,21,08,47,23.70
2006,07,21,08,48,23.70
2006,07,21,08,49,23.70
2006,07,21,08,50,23.80
2006,07,21,08,51,23.70
2006,07,21,08,52,23.70
2006,07,21,08,53,23.70
2006,07,21,08,54,23.70
2006,07,21,08,55,23.70
2006,07,21,08,56,23.70
2006,07,21,08,57,23.70
2006,07,21,08,58,23.70
2006,07,21,08,59,23.70
2006,07,21,09,00,23.70
2006,07,21,09,01,23.70
2006,07,21,09,02,23.70
2006,07,21,09,03,23.60
2006,07,21,09,04,23.60
2006,07,21,09,05,23.60
2006,07,21,09,06,23.70
2006,07,21,09,07,23.70
2006,07,21,09,08,23.70
2006,07,21,09,09,23.70
2006,07,21,09,10,23.80
2006,07,21,09,11,23.80
2006,07,21,09,12,23.90
2006,07,21,09,13,24.00
2006,07,21,09,14,24.00
2006,07,21,09,15,24.00
2006,07,21,09,16,23.90
2006,07,21,09,17,23.90
2006,07,21,09,18,23.80
2006,07,21,09,19,23.80
2006,07,21,09,20,23.80
2006,07,21,09,21,23.80
2006,07,21,09,22,23.80
2006,07,21,09,23,23.80
2006,07,21,09,24,23.80
2006,07,21,09,25,23.80
2006,07,21,09,26,23.80
2006,07,21,09,27,23.80
2006,07,21,09,28,23.90
2006,07,21,09,29,23.90
2006,07,21,09,30,23.90
2006,07,21,09,31,24.00
2006,07,21,09,32,24.00
2006,07,21,09,33,24.10
2006,07,21,09,34,24.20
2006,07,21,09,35,24.30
2006,07,21,09,36,24.40
2006,07,21,09,37,24.60
2006,07,21,09,38,24.70
2006,07,21,09,39,24.70
2006,07,21,09,40,24.70
2006,07,21,09,41,24.70
2006,07,21,09,42,24.70
2006,07,21,09,43,24.80
2006,07,21,09,44,24.80
2006,07,21,09,45,24.90
2006,07,21,09,46,25.00
2006,07,21,09,47,25.10
2006,07,21,09,48,25.10
2006,07,21,09,49,25.10
2006,07,21,09,50,25.10
2006,07,21,09,51,25.00
2006,07,21,09,52,25.00
2006,07,21,09,53,24.90
2006,07,21,09,54,24.90
2006,07,21,09,55,25.00
2006,07,21,09,56,25.10
2006,07,21,09,57,25.20
2006,07,21,09,58,25.30
2006,07,21,09,59,25.50
2006,07,21,10,00,25.60
2006,07,21,10,01,25.60
2006,07,21,10,02,25.70
2006,07,21,10,03,25.60
2006,07,21,10,04,25.50
2006,07,21,10,05,25.40
2006,07,21,10,06,25.40
2006,07,21,10,07,25.40
2006,07,21,10,08,25.30
2006,07,21,10,09,25.30
2006,07,21,10,10,25.20
2006,07,21,10,11,25.20
2006,07,21,10,12,25.20
2006,07,21,10,13,25.20
2006,07,21,10,14,25.30
2006,07,21,10,15,25.30
2006,07,21,10,16,25.40
2006,07,21,10,17,25.50
2006,07,21,10,18,25.50
2006,07,21,10,19,25.50
2006,07,21,10,20,25.50
2006,07,21,10,21,25.50
2006,07,21,10,22,25.50
2006,07,21,10,23,25.50
2006,07,21,10,24,25.60
2006,07,21,10,25,25.50
2006,07,21,10,26,25.40
2006,07,21,10,27,25.40
2006,07,21,10,28,25.40
2006,07,21,10,29,25.40
2006,07,21,10,30,25.40
2006,07,21,10,31,25.30
2006,07,21,10,32,25.30
2006,07,21,10,33,25.30
2006,07,21,10,34,25.30
2006,07,21,10,35,25.30
2006,07,21,10,36,25.30
2006,07,21,10,37,25.40
2006,07,21,10,38,25.50
2006,07,21,10,39,25.60
2006,07,21,10,40,25.70
2006,07,21,10,41,25.80
2006,07,21,10,42,25.80
2006,07,21,10,43,25.80
2006,07,21,10,44,25.80
2006,07,21,10,45,25.70
2006,07,21,10,46,25.70
2006,07,21,10,47,25.70
2006,07,21,10,48,25.60
2006,07,21,10,49,25.50
2006,07,21,10,50,25.50
2006,07,21,10,51,25.60
2006,07,21,10,52,25.60
2006,07,21,10,53,25.50
2006,07,21,10,54,25.50
2006,07,21,10,55,25.50
2006,07,21,10,56,25.60
2006,07,21,10,57,25.70
2006,07,21,10,58,25.70
2006,07,21,10,59,25.80
2006,07,21,11,00,25.80
2006,07,21,11,01,25.80
2006,07,21,11,02,25.90
2006,07,21,11,03,25.90
2006,07,21,11,04,26.00
2006,07,21,11,05,26.00
2006,07,21,11,06,26.10
2006,07,21,11,07,26.10
2006,07,21,11,08,26.20
2006,07,21,11,09,26.20
2006,07,21,11,10,26.20
2006,07,21,11,11,26.30
2006,07,21,11,12,26.40
2006,07,21,11,13,26.50
2006,07,21,11,14,26.60
2006,07,21,11,15,26.70
2006,07,21,11,16,26.90
2006,07,21,11,17,27.00
2006,07,21,11,18,26.90
2006,07,21,11,19,26.90
2006,07,21,11,20,26.90
2006,07,21,11,21,26.90
2006,07,21,11,22,26.90
2006,07,21,11,23,26.80
2006,07,21,11,24,26.70
2006,07,21,11,25,26.70
2006,07,21,11,26,26.70
2006,07,21,11,27,26.70
2006,07,21,11,28,26.70
2006,07,21,11,29,26.70
2006,07,21,11,30,26.80
2006,07,21,11,31,26.90
2006,07,21,11,32,26.90
2006,07,21,11,33,26.90
2006,07,21,11,34,26.90
2006,07,21,11,35,27.00
2006,07,21,11,36,27.00
2006,07,21,11,37,27.10
2006,07,21,11,38,27.20
2006,07,21,11,39,27.20
2006,07,21,11,40,27.30
2006,07,21,11,41,27.40
2006,07,21,11,42,27.50
2006,07,21,11,43,27.60
2006,07,21,11,44,27.60
2006,07,21,11,45,27.60
2006,07,21,11,46,27.60
2006,07,21,11,47,27.60
2006,07,21,11,48,27.60
2006,07,21,11,49,27.70
2006,07,21,11,50,27.80
2006,07,21,11,51,27.80
2006,07,21,11,52,27.90
2006,07,21,11,53,27.90
2006,07,21,11,54,27.80
2006,07,21,11,55,27.70
2006,07,21,11,56,27.70
2006,07,21,11,57,27.70
2006,07,21,11,58,27.70
2006,07,21,11,59,27.80
2006,07,21,12,00,27.80
2006,07,21,12,01,27.90
2006,07,21,12,02,27.90
2006,07,21,12,03,28.00
2006,07,21,12,04,28.10
2006,07,21,12,05,28.00
2006,07,21,12,06,28.00
2006,07,21,12,07,28.00
2006,07,21,12,08,28.10
2006,07,21,12,09,28.00
2006,07,21,12,10,27.90
2006,07,21,12,11,27.80
2006,07,21,12,12,27.80
2006,07,21,12,13,27.90
2006,07,21,12,14,28.00
2006,07,21,12,15,28.00
2006,07,21,12,16,28.10
2006,07,21,12,17,28.20
2006,07,21,12,18,28.30
2006,07,21,12,19,28.30
2006,07,21,12,20,28.30
2006,07,21,12,21,28.40
2006,07,21,12,22,28.40
2006,07,21,12,23,28.40
2006,07,21,12,24,28.40
2006,07,21,12,25,28.40
2006,07,21,12,26,28.40
2006,07,21,12,27,28.30
2006,07,21,12,28,28.30
2006,07,21,12,29,28.40
2006,07,21,12,30,28.40
2006,07,21,12,31,28.30
2006,07,21,12,32,28.30
2006,07,21,12,33,28.30
2006,07,21,12,34,28.40
2006,07,21,12,35,28.40
2006,07,21,12,36,28.40
2006,07,21,12,37,28.30
2006,07,21,12,38,28.20
2006,07,21,12,39,28.20
2006,07,21,12,40,28.30
2006,07,21,12,41,28.20
2006,07,21,12,42,28.20
2006,07,21,12,43,28.20
2006,07,21,12,44,28.20
2006,07,21,12,45,28.30
2006,07,21,12,46,28.40
2006,07,21,12,47,28.40
2006,07,21,12,48,28.30
2006,07,21,12,49,28.30
2006,07,21,12,50,28.20
2006,07,21,12,51,28.10
2006,07,21,12,52,28.20
2006,07,21,12,53,28.20
2006,07,21,12,54,28.30
2006,07,21,12,55,28.30
2006,07,21,12,56,28.20
2006,07,21,12,57,28.20
2006,07,21,12,58,28.20
2006,07,21,12,59,28.20
2006,07,21,13,00,28.20
2006,07,21,13,01,28.20
2006,07,21,13,02,28.10
2006,07,21,13,03,28.10
2006,07,21,13,04,28.10
2006,07,21,13,05,28.20
2006,07,21,13,06,28.20
2006,07,21,13,07,28.20
2006,07,21,13,08,28.30
2006,07,21,13,09,28.30
2006,07,21,13,10,28.30
2006,07,21,13,11,28.30
2006,07,21,13,12,28.40
2006,07,21,13,13,28.50
2006,07,21,13,14,28.70
2006,07,21,13,15,28.70
2006,07,21,13,16,28.70
2006,07,21,13,17,28.80
2006,07,21,13,18,28.90
2006,07,21,13,19,28.80
2006,07,21,13,20,28.80
2006,07,21,13,21,28.80
2006,07,21,13,22,28.70
2006,07,21,13,23,28.70
2006,07,21,13,24,28.70
2006,07,21,13,25,28.60
2006,07,21,13,26,28.60
2006,07,21,13,27,28.60
2006,07,21,13,28,28.60
2006,07,21,13,29,28.70
2006,07,21,13,30,28.70
2006,07,21,13,31,28.60
2006,07,21,13,32,28.60
2006,07,21,13,33,28.60
2006,07,21,13,34,28.50
2006,07,21,13,35,28.50
2006,07,21,13,36,28.60
2006,07,21,13,37,28.50
2006,07,21,13,38,28.60
2006,07,21,13,39,28.60
2006,07,21,13,40,28.60
2006,07,21,13,41,28.60
2006,07,21,13,42,28.60
2006,07,21,13,43,28.60
2006,07,21,13,44,28.70
2006,07,21,13,45,28.80
2006,07,21,13,46,28.90
2006,07,21,13,47,28.90
2006,07,21,13,48,29.00
2006,07,21,13,49,29.10
2006,07,21,13,50,29.10
2006,07,21,13,51,29.20
2006,07,21,13,52,29.10
2006,07,21,13,53,29.10
2006,07,21,13,54,29.00
2006,07,21,13,55,29.00
2006,07,21,13,56,29.00
2006,07,21,13,57,29.10
2006,07,21,13,58,29.10
2006,07,21,13,59,29.20
2006,07,21,14,00,29.30
2006,07,21,14,01,29.40
2006,07,21,14,02,29.50
2006,07,21,14,03,29.60
2006,07,21,14,04,29.50
2006,07,21,14,05,29.30
2006,07,21,14,06,29.20
2006,07,21,14,07,29.10
2006,07,21,14,08,29.10
2006,07,21,14,09,29.10
2006,07,21,14,10,29.10
2006,07,21,14,11,29.10
2006,07,21,14,12,29.20
2006,07,21,14,13,29.20
2006,07,21,14,14,29.20
2006,07,21,14,15,29.20
2006,07,21,14,16,29.30
2006,07,21,14,17,29.30
2006,07,21,14,18,29.30
2006,07,21,14,19,29.30
2006,07,21,14,20,29.40
2006,07,21,14,21,29.40
2006,07,21,14,22,29.40
2006,07,21,14,23,29.50
2006,07,21,14,24,29.60
2006,07,21,14,25,29.70
2006,07,21,14,26,29.80
2006,07,21,14,27,29.90
2006,07,21,14,28,29.90
2006,07,21,14,29,29.90
2006,07,21,14,30,29.80
2006,07,21,14,31,29.70
2006,07,21,14,32,29.60
2006,07,21,14,33,29.60
2006,07,21,14,34,29.60
2006,07,21,14,35,29.60
2006,07,21,14,36,29.60
2006,07,21,14,37,29.70
2006,07,21,14,38,29.70
2006,07,21,14,39,29.70
2006,07,21,14,40,29.70
2006,07,21,14,41,29.80
2006,07,21,14,42,30.00
2006,07,21,14,43,30.00
2006,07,21,14,44,30.10
2006,07,21,14,45,30.10
2006,07,21,14,46,30.10
2006,07,21,14,47,30.20
2006,07,21,14,48,30.20
2006,07,21,14,49,30.20
2006,07,21,14,50,30.00
2006,07,21,14,51,29.90
2006,07,21,14,52,29.70
2006,07,21,14,53,29.50
2006,07,21,14,54,29.40
2006,07,21,14,55,29.30
2006,07,21,14,56,29.10
2006,07,21,14,57,29.00
2006,07,21,14,58,28.90
2006,07,21,14,59,28.90
2006,07,21,15,00,28.80
2006,07,21,15,01,28.70
2006,07,21,15,02,28.70
2006,07,21,15,03,28.80
2006,07,21,15,04,28.80
2006,07,21,15,05,28.80
2006,07,21,15,06,28.80
2006,07,21,15,07,28.80
2006,07,21,15,08,28.80
2006,07,21,15,09,28.80
2006,07,21,15,10,28.80
2006,07,21,15,11,28.80
2006,07,21,15,12,28.90
2006,07,21,15,13,28.90
2006,07,21,15,14,28.90
2006,07,21,15,15,28.90
2006,07,21,15,16,28.90
2006,07,21,15,17,28.90
2006,07,21,15,18,29.00
2006,07,21,15,19,29.00
2006,07,21,15,20,29.10
2006,07,21,15,21,29.10
2006,07,21,15,22,29.10
2006,07,21,15,23,29.10
2006,07,21,15,24,29.10
2006,07,21,15,25,29.20
2006,07,21,15,26,29.30
2006,07,21,15,27,29.40
2006,07,21,15,28,29.40
2006,07,21,15,29,29.40
2006,07,21,15,30,29.30
2006,07,21,15,31,29.30
2006,07,21,15,32,29.30
2006,07,21,15,33,29.30
2006,07,21,15,34,29.20
2006,07,21,15,35,29.30
2006,07,21,15,36,29.30
2006,07,21,15,37,29.30
2006,07,21,15,38,29.40
2006,07,21,15,39,29.40
2006,07,21,15,40,29.40
2006,07,21,15,41,29.50
2006,07,21,15,42,29.70
2006,07,21,15,43,29.80
2006,07,21,15,44,29.90
2006,07,21,15,45,30.00
2006,07,21,15,46,30.00
2006,07,21,15,47,30.00
2006,07,21,15,48,30.10
2006,07,21,15,49,30.10
2006,07,21,15,50,30.20
2006,07,21,15,51,30.30
2006,07,21,15,52,30.40
2006,07,21,15,53,30.40
2006,07,21,15,54,30.50
2006,07,21,15,55,30.60
2006,07,21,15,56,30.70
2006,07,21,15,57,30.70
2006,07,21,15,58,30.70
2006,07,21,15,59,30.70
2006,07,21,16,00,30.60
2006,07,21,16,01,30.60
2006,07,21,16,02,30.60
2006,07,21,16,03,30.60
2006,07,21,16,04,30.60
2006,07,21,16,05,30.60
2006,07,21,16,06,30.60
2006,07,21,16,07,30.60
2006,07,21,16,08,30.60
2006,07,21,16,09,30.60
2006,07,21,16,10,30.50
2006,07,21,16,11,30.50
2006,07,21,16,12,30.60
2006,07,21,16,13,30.60
2006,07,21,16,14,30.70
2006,07,21,16,15,30.70
2006,07,21,16,16,30.70
2006,07,21,16,17,30.70
2006,07,21,16,18,30.70
2006,07,21,16,19,30.70
2006,07,21,16,20,30.60
2006,07,21,16,21,30.60
2006,07,21,16,22,30.60
2006,07,21,16,23,30.50
2006,07,21,16,24,30.60
2006,07,21,16,25,30.60
2006,07,21,16,26,30.70
2006,07,21,16,27,30.80
2006,07,21,16,28,30.90
2006,07,21,16,29,30.90
2006,07,21,16,30,31.00
2006,07,21,16,31,31.00
2006,07,21,16,32,31.10
2006,07,21,16,33,31.10
2006,07,21,16,34,31.10
2006,07,21,16,35,31.10
2006,07,21,16,36,31.10
2006,07,21,16,37,31.10
2006,07,21,16,38,31.20
2006,07,21,16,39,31.20
2006,07,21,16,40,31.30
2006,07,21,16,41,31.30
2006,07,21,16,42,31.30
2006,07,21,16,43,31.40
2006,07,21,16,44,31.50
2006,07,21,16,45,31.60
2006,07,21,16,46,31.60
2006,07,21,16,47,31.60
2006,07,21,16,48,31.60
2006,07,21,16,49,31.60
2006,07,21,16,50,31.50
2006,07,21,16,51,31.50
2006,07,21,16,52,31.40
2006,07,21,16,53,31.40
2006,07,21,16,54,31.40
2006,07,21,16,55,31.40
2006,07,21,16,56,31.40
2006,07,21,16,57,31.40
2006,07,21,16,58,31.40
2006,07,21,16,59,31.50
2006,07,21,17,00,31.50
2006,07,21,17,01,31.60
2006,07,21,17,02,31.60
2006,07,21,17,03,31.70
2006,07,21,17,04,31.70
2006,07,21,17,05,31.70
2006,07,21,17,06,31.70
2006,07,21,17,07,31.70
2006,07,21,17,08,31.80
2006,07,21,17,09,31.90
2006,07,21,17,10,31.90
2006,07,21,17,11,31.90
2006,07,21,17,12,31.90
2006,07,21,17,13,32.00
2006,07,21,17,14,32.00
2006,07,21,17,15,32.10
2006,07,21,17,16,32.10
2006,07,21,17,17,32.20
2006,07,21,17,18,32.30
2006,07,21,17,19,32.20